Terminal Aerodrome Forecast
Issued by NWS Grand Forks, ND

Home | Current Version | Previous Version | Graphics & Text | Print | Product List | Glossary On
Versions: 1 2 3 4 5 6 7 8 9 10 11 12 13 14 15 16
000
FTUS43 KFGF 221100
TAFGFK
TAF
KGFK 221120Z 2212/2312 19011KT P6SM SCT250
     FM221600 19019G26KT P6SM BKN250
     FM222300 22016G24KT P6SM OVC100
     FM230900 27015G22KT P6SM BKN050=

USA.gov is the U.S. government's official web portal to all federal, state and local government web resources and services.